2024/01/25 00:00:00,57.3,-2.8
2024/01/25 00:10:00,57.5,-2.7
2024/01/25 00:20:00,57.7,-2.6
2024/01/25 00:30:00,57.9,-2.7
2024/01/25 00:40:00,57.6,-2.7
2024/01/25 00:50:00,57.5,-2.3
2024/01/25 01:00:00,57.3,-2.3
2024/01/25 01:10:00,57.4,-2.3
2024/01/25 01:20:00,57.5,-2.4
2024/01/25 01:30:00,57.3,-2.6
2024/01/25 01:40:00,57.3,-2.5
2024/01/25 01:50:00,57.1,-2.4
2024/01/25 02:00:00,57.0,-2.6
2024/01/25 02:10:00,57.6,-2.5
2024/01/25 02:20:00,58.4,-2.7
2024/01/25 02:30:00,59.0,-2.5
2024/01/25 02:40:00,59.3,-2.5
2024/01/25 02:50:00,59.3,-2.5
2024/01/25 03:00:00,59.3,-2.6
2024/01/25 03:10:00,59.6,-2.7
2024/01/25 03:20:00,60.1,-2.5
2024/01/25 03:30:00,60.8,-2.5
2024/01/25 03:40:00,61.5,-2.8
2024/01/25 03:50:00,61.8,-2.8
2024/01/25 04:00:00,62.0,-2.6
2024/01/25 04:10:00,62.6,-2.7
2024/01/25 04:20:00,62.6,-2.7
2024/01/25 04:30:00,62.4,-2.4
2024/01/25 04:40:00,62.4,-2.6
2024/01/25 04:50:00,62.4,-2.6
2024/01/25 05:00:00,62.5,-2.4
2024/01/25 05:10:00,62.9,-2.7
2024/01/25 05:20:00,62.9,-2.5
2024/01/25 05:30:00,62.8,-2.5
2024/01/25 05:40:00,62.8,-2.6
2024/01/25 05:50:00,62.7,-2.7
2024/01/25 06:00:00,63.3,-2.4
2024/01/25 06:10:00,63.2,-2.7
2024/01/25 06:20:00,63.3,-2.7
2024/01/25 06:30:00,63.4,-2.5
2024/01/25 06:40:00,63.4,-2.7
2024/01/25 06:50:00,63.4,-2.6
2024/01/25 07:00:00,63.5,-2.8
2024/01/25 07:10:00,63.5,-2.7
2024/01/25 07:20:00,63.4,-2.6
2024/01/25 07:30:00,63.3,-2.6
2024/01/25 07:40:00,63.1,-2.4
2024/01/25 07:50:00,63.4,-2.4
2024/01/25 08:00:00,63.3,-2.2
2024/01/25 08:10:00,63.4,-2.0
2024/01/25 08:20:00,63.4,-2.1
2024/01/25 08:30:00,63.5,-2.1
2024/01/25 08:40:00,64.0,-2.2
2024/01/25 08:50:00,64.3,-0.9
2024/01/25 09:00:00,64.3,-1.6
2024/01/25 09:10:00,64.4,-1.6
2024/01/25 09:20:00,64.6,-1.2
2024/01/25 09:30:00,64.7,-1.0
2024/01/25 09:40:00,64.9,-1.2
2024/01/25 09:50:00,65.5,-1.6
2024/01/25 10:00:00,65.8,-1.2
2024/01/25 10:10:00,66.5,-1.2
2024/01/25 10:20:00,67.5,-1.2
2024/01/25 10:30:00,68.4,-1.3
2024/01/25 10:40:00,68.9,-1.2
2024/01/25 10:50:00,69.6,-1.1
2024/01/25 11:00:00,69.8, 0.2
2024/01/25 11:10:00,69.7,-0.1
2024/01/25 11:20:00,69.8, 0.1
2024/01/25 11:30:00,70.1, 0.0
2024/01/25 11:40:00,70.1,-0.4
2024/01/25 11:50:00,70.0,-0.7
2024/01/25 12:00:00,70.3,-0.8
2024/01/25 12:10:00,70.6,-0.4
2024/01/25 12:20:00,71.1,-0.9
2024/01/25 12:30:00,71.3, 0.8
2024/01/25 12:40:00,71.1, 0.7
2024/01/25 12:50:00,71.0, 0.9
2024/01/25 13:00:00,70.6, 0.1
2024/01/25 13:10:00,71.1, 0.5
2024/01/25 13:20:00,71.3, 1.3
2024/01/25 13:30:00,71.2, 0.0
2024/01/25 13:40:00,71.3, 0.9
2024/01/25 13:50:00,71.3,-0.2
2024/01/25 14:00:00,71.6,-0.2
2024/01/25 14:10:00,71.9,-0.2
2024/01/25 14:20:00,72.4,-0.6
2024/01/25 14:30:00,73.0,-0.8
2024/01/25 14:40:00,73.3,-0.6
2024/01/25 14:50:00,73.4,-0.6
2024/01/25 15:00:00,73.9,-0.6
2024/01/25 15:10:00,74.0,-0.7
2024/01/25 15:20:00,74.3,-0.5
2024/01/25 15:30:00,74.5,-0.6
2024/01/25 15:40:00,74.5,-0.7
2024/01/25 15:50:00,75.0,-0.9
2024/01/25 16:00:00,75.6,-0.7
2024/01/25 16:10:00,75.5,-0.6
2024/01/25 16:20:00,75.7,-0.7
2024/01/25 16:30:00,75.9,-1.2
2024/01/25 16:40:00,76.0,-0.9
2024/01/25 16:50:00,76.3,-1.2
2024/01/25 17:00:00,76.9,-1.3
2024/01/25 17:10:00,77.4,-1.2
2024/01/25 17:20:00,77.7,-1.2
2024/01/25 17:30:00,77.9,-1.2
2024/01/25 17:40:00,78.0,-1.2
2024/01/25 17:50:00,78.2,-1.3
2024/01/25 18:00:00,78.3,-1.4
2024/01/25 18:10:00,78.3,-1.2
2024/01/25 18:20:00,78.6,-1.4
2024/01/25 18:30:00,79.0,-1.2
2024/01/25 18:40:00,79.0,-1.0
2024/01/25 18:50:00,79.3,-1.5
2024/01/25 19:00:00,79.3,-1.2
2024/01/25 19:10:00,79.2,-1.2
2024/01/25 19:20:00,79.3,-1.2
2024/01/25 19:30:00,79.4,-1.2
2024/01/25 19:40:00,79.4,-0.8
2024/01/25 19:50:00,79.6,-1.2
2024/01/25 20:00:00,79.5,-1.2
2024/01/25 20:10:00,79.5,-1.0
2024/01/25 20:20:00,79.8,-1.1
2024/01/25 20:30:00,80.2,-1.1
2024/01/25 20:40:00,80.4,-1.1
2024/01/25 20:50:00,81.1,-1.0
2024/01/25 21:00:00,81.2,-1.1
2024/01/25 21:10:00,81.2,-1.0
2024/01/25 21:20:00,81.1,-1.1
2024/01/25 21:30:00,81.1,-1.2
2024/01/25 21:40:00,81.6,-1.4
2024/01/25 21:50:00,82.2,-1.0
2024/01/25 22:00:00,82.4,-1.0
2024/01/25 22:10:00,82.4,-0.8
2024/01/25 22:20:00,82.3,-1.1
2024/01/25 22:30:00,82.2,-0.9
2024/01/25 22:40:00,82.6,-0.8
2024/01/25 22:50:00,82.6,-0.7
2024/01/25 23:00:00,82.7,-0.8
2024/01/25 23:10:00,82.7,-0.7
2024/01/25 23:20:00,82.4,-0.8
2024/01/25 23:30:00,82.3,-1.1
2024/01/25 23:40:00,82.2,-1.2
2024/01/25 23:50:00,82.2,-1.1
